157  
ASCA42 TJSJ 141710  
RWRPR  
PUERTO RICO/U.S. VIRGIN ISLANDS HOURLY WEATHER ROUNDUP  
NATIONAL WEATHER SERVICE SAN JUAN PR  
100 PM AST FRI AUG 14 2020  
 
PRZ001>002-007>008-010-141800-  
PUERTO RICO  
 
CITY SKY/WX TMP DP RH WIND PRES REMARKS
 
SAN JUAN LMM MOSUNNY 90 75 62 E17G23 29.95F HX 100  
AGUADILLA PTSUNNY N/A N/A N/A E20G25 29.96F  
CEIBA MOSUNNY 90 75 62 NE14 29.95F HX 100  

 
 
VIZ001>002-141800-  
U.S. VIRGIN ISLANDS  
 
CITY SKY/WX TMP DP RH WIND PRES REMARKS
 
CHARLOTTE AMA MOSUNNY 91 73 55 NE14G28 29.92F HX 100  
CHRISTIANSTED PTSUNNY 90 73 58 NE17 29.93F HX 98  

 
 
HOURLY WEATHER ROUNDUP FOR THE NEWS MEDIA  
 
CITY SKY/WX TMP DP RH WIND PRES REMARKS
 
ORLANDO MOSUNNY 92 71 50 VRB3 30.01F HX 98  
NEW YORK PTSUNNY 84 66 54 E12 30.00F  
NEWARK PTSUNNY 86 62 44 NE10 29.99F  
CHICAGO MOSUNNY 87 57 35 E7 30.02F  
HARTFORD PTSUNNY 89 62 40 E12 30.02F  
BOSTON PTSUNNY 77 61 57 E13 30.06F  
DALLAS MOSUNNY 96 70 42 SW9 29.90S HX 102  
PHILADELPHIA PTSUNNY 84 70 62 NE14G22 29.97F  
LOS ANGELES MOSUNNY 80 63 55 W7 29.91R  
WASHINGTON DC PTSUNNY 86 72 62 NE9 29.99F HX 92  
 
CLICK HERE TO GO TO PREVIOUS BULLETINS.

The Nexlab PR Page Main Text Page